Bewolking Meer informatie Parkstad Weather Satellite


Neerslagradar Meer informatie Parkstad Rain Snow Radar


Onweersbuien Meer informatie Parkstad Lighntning


24/7 Weercamera Meer informatie Parkstad Weathercam


Natuurbrandrisico
CBI






Het weer levert geen direct gevaar op in Parkstad.    Er zijn geen waarschuwingen afgegeven voor Parkstad (045)

Select another period ( hide this area )

Eenheden Periode Custom range Directly to
Metrisch Engels Beide
Dagelijkse Wekelijkse Maandelijkse Jaarlijkse
use both date-selectors for a custom range
previous Dag
With this date
Dagelijkse Samenvatting Dinsdag 19 oktober 2021
Tijd Temp. ( °C ) Dew pt. ( °C ) Wind ( km/h ) van Windvlaag ( km/h ) Luchtdruk ( hPa ) Humid.( % ) Rainrate ( cm ) Zonneschijn ( W/m2 )
Hoog14,6 12,7 19,0 ZW ( 482/846 ) 21,0 1020,3 96 0,76 0
Gemiddeld13,9 11,4 13,2 ZW #36/64 15,8 1019,5 85 1,00 NAN #0/64
Laag13,3 9,8 10,0   10,0 1018,0 75 -  
Dagelijkse Tabular details for Dinsdag 19 oktober 2021
Tijd Temp. ( °C ) Dew pt. ( °C ) Wind ( km/h ) van Windvlaag ( km/h ) Luchtdruk ( hPa ) Humid.( % ) Rainrate ( cm ) Zonneschijn ( W/m2 )
00:04 14,2 9,8 11,0 ZZW 13,0 1020,3 75 - -
00:09 14,2 9,8 15,0 ZZW 15,0 1020,3 75 - -
00:14 14,2 9,8 13,0 ZW 18,0 1020,3 75 - -
00:19 14,2 10,0 13,0 ZW 15,0 1020,0 76 - -
00:24 14,2 10,0 16,0 ZZW 21,0 1020,0 76 - -
00:29 14,2 10,0 16,0 ZW 21,0 1020,0 76 - -
00:34 14,2 10,0 14,0 ZW 21,0 1020,0 76 - -
00:39 14,2 10,0 11,0 ZW 21,0 1020,0 76 - -
00:44 14,2 10,0 13,0 ZW 16,0 1020,0 76 - -
00:49 14,2 10,0 11,0 ZW 16,0 1020,0 76 - -
00:54 14,2 10,0 11,0 ZW 16,0 1020,0 76 - -
00:59 14,2 10,0 11,0 ZW 16,0 1020,0 76 - -
01:04 14,2 10,0 13,0 ZW 13,0 1020,0 76 - -
01:09 14,2 10,0 11,0 ZZW 13,0 1020,0 76 - -
01:14 14,2 10,2 11,0 ZZW 11,0 1020,0 77 - -
01:19 14,2 10,2 13,0 ZW 13,0 1019,6 77 - -
01:24 14,2 10,2 16,0 ZZW 16,0 1019,6 77 - -
01:29 14,3 10,3 10,0 ZW 13,0 1019,6 77 - -
01:34 14,4 10,4 18,0 ZW 18,0 1019,6 77 - -
01:39 14,4 10,4 13,0 ZW 18,0 1019,6 77 - -
01:44 14,4 10,4 13,0 ZW 18,0 1019,6 77 - -
01:49 14,4 10,4 18,0 ZW 18,0 1020,0 77 - -
01:54 14,5 10,5 18,0 ZW 18,0 1020,0 77 - -
01:59 14,6 10,6 13,0 ZW 16,0 1020,0 77 - -
02:04 14,6 10,8 16,0 ZW 18,0 1020,0 78 - -
02:09 14,6 10,8 13,0 ZW 15,0 1020,0 78 - -
02:14 14,6 11,0 18,0 ZZW 18,0 1020,0 79 - -
02:19 14,5 11,1 11,0 ZW 15,0 1019,6 80 - -
02:24 14,4 11,2 16,0 ZW 16,0 1019,6 81 - -
02:29 14,3 11,3 14,0 ZW 15,0 1019,6 82 - -
02:34 14,2 11,5 10,0 ZZW 16,0 1019,6 84 - -
02:39 14,2 11,7 13,0 ZZW 18,0 1019,6 85 0,25 -
02:44 14,0 11,8 13,0 ZW 18,0 1019,6 87 0,25 -
02:49 13,8 11,7 14,0 ZZW 18,0 1019,6 88 0,25 -
02:54 13,7 11,7 11,0 ZZW 15,0 1019,6 88 0,51 -
02:59 13,7 11,9 11,0 ZZW 18,0 1019,6 89 0,51 -
03:04 13,7 11,9 11,0 ZZW 13,0 1019,6 89 0,51 -
03:09 13,7 11,9 11,0 ZW 16,0 1019,6 89 0,51 -
03:14 13,7 12,1 10,0 ZW 11,0 1019,6 90 0,51 -
03:19 13,7 12,1 11,0 ZW 11,0 1019,6 90 0,51 -
03:24 13,7 12,3 13,0 ZW 13,0 1019,6 91 0,51 -
03:29 13,7 12,3 13,0 ZW 16,0 1019,6 91 0,51 -
03:34 13,7 12,4 13,0 ZW 16,0 1019,6 92 0,76 -
03:39 13,7 12,4 16,0 ZW 16,0 1019,6 92 0,76 -
03:44 13,7 12,4 16,0 ZW 16,0 1019,6 92 0,76 -
03:49 13,7 12,6 10,0 ZW 15,0 1019,3 93 0,76 -
03:54 13,6 12,7 11,0 ZZW 16,0 1019,3 94 0,76 -
03:59 13,6 12,7 11,0 ZZW 13,0 1019,3 94 0,51 -
04:04 13,5 12,6 13,0 ZZW 13,0 1019,3 94 0,51 -
04:09 13,5 12,6 11,0 ZZW 13,0 1019,3 95 0,51 -
04:14 13,4 12,6 11,0 ZZW 13,0 1019,3 95 0,51 -
04:19 13,4 12,6 10,0 ZZW 10,0 1019,3 95 0,51 -
04:24 13,3 12,5 11,0 ZW 13,0 1019,0 95 0,51 -
04:29 13,3 12,7 11,0 ZZW 18,0 1019,0 96 0,51 -
04:34 13,3 12,7 13,0 ZZW 15,0 1018,6 96 0,51 -
04:39 13,3 12,7 18,0 ZZW 18,0 1018,6 96 0,51 -
04:44 13,3 12,7 14,0 ZZW 18,0 1018,6 96 0,25 -
04:49 13,3 12,7 11,0 ZZW 11,0 1018,3 96 0,25 -
04:54 13,4 12,6 14,0 ZZW 18,0 1018,3 95 0,25 -
04:59 13,4 12,6 16,0 ZZW 16,0 1018,3 95 0,25 -
05:04 13,5 12,7 16,0 ZZW 16,0 1018,0 95 0,25 -
05:09 13,5 12,7 19,0 ZW 19,0 1018,0 95 - -
05:14 13,5 12,7 16,0 ZZW 18,0 1018,0 95 - -
05:19 13,5 12,7 14,0 ZW 18,0 1018,0 95 - -
Dagelijkse Samenvatting Dinsdag 19 oktober 2021
Tijd Temp. ( °C ) Dew pt. ( °C ) Wind ( km/h ) van Windvlaag ( km/h ) Luchtdruk ( hPa ) Humid.( % ) Rainrate ( cm ) Zonneschijn ( W/m2 )
Hoog14,6 12,7 19,0 ZW ( 482/846 ) 21,0 1020,3 96 0,76 0
Gemiddeld13,9 11,4 13,2 ZW #36/64 15,8 1019,5 85 1,00 NAN #0/64
Laag13,3 9,8 10,0   10,0 1018,0 75 -  
Dagelijkse Tabular details for Dinsdag 19 oktober 2021
Tijd Temp. ( °C ) Dew pt. ( °C ) Wind ( km/h ) van Windvlaag ( km/h ) Luchtdruk ( hPa ) Humid.( % ) Rainrate ( cm ) Zonneschijn ( W/m2 )
00:04 14,2 9,8 11,0 ZZW 13,0 1020,3 75 - -
00:09 14,2 9,8 15,0 ZZW 15,0 1020,3 75 - -
00:14 14,2 9,8 13,0 ZW 18,0 1020,3 75 - -
00:19 14,2 10,0 13,0 ZW 15,0 1020,0 76 - -
00:24 14,2 10,0 16,0 ZZW 21,0 1020,0 76 - -
00:29 14,2 10,0 16,0 ZW 21,0 1020,0 76 - -
00:34 14,2 10,0 14,0 ZW 21,0 1020,0 76 - -
00:39 14,2 10,0 11,0 ZW 21,0 1020,0 76 - -
00:44 14,2 10,0 13,0 ZW 16,0 1020,0 76 - -
00:49 14,2 10,0 11,0 ZW 16,0 1020,0 76 - -
00:54 14,2 10,0 11,0 ZW 16,0 1020,0 76 - -
00:59 14,2 10,0 11,0 ZW 16,0 1020,0 76 - -
01:04 14,2 10,0 13,0 ZW 13,0 1020,0 76 - -
01:09 14,2 10,0 11,0 ZZW 13,0 1020,0 76 - -
01:14 14,2 10,2 11,0 ZZW 11,0 1020,0 77 - -
01:19 14,2 10,2 13,0 ZW 13,0 1019,6 77 - -
01:24 14,2 10,2 16,0 ZZW 16,0 1019,6 77 - -
01:29 14,3 10,3 10,0 ZW 13,0 1019,6 77 - -
01:34 14,4 10,4 18,0 ZW 18,0 1019,6 77 - -
01:39 14,4 10,4 13,0 ZW 18,0 1019,6 77 - -
01:44 14,4 10,4 13,0 ZW 18,0 1019,6 77 - -
01:49 14,4 10,4 18,0 ZW 18,0 1020,0 77 - -
01:54 14,5 10,5 18,0 ZW 18,0 1020,0 77 - -
01:59 14,6 10,6 13,0 ZW 16,0 1020,0 77 - -
02:04 14,6 10,8 16,0 ZW 18,0 1020,0 78 - -
02:09 14,6 10,8 13,0 ZW 15,0 1020,0 78 - -
02:14 14,6 11,0 18,0 ZZW 18,0 1020,0 79 - -
02:19 14,5 11,1 11,0 ZW 15,0 1019,6 80 - -
02:24 14,4 11,2 16,0 ZW 16,0 1019,6 81 - -
02:29 14,3 11,3 14,0 ZW 15,0 1019,6 82 - -
02:34 14,2 11,5 10,0 ZZW 16,0 1019,6 84 - -
02:39 14,2 11,7 13,0 ZZW 18,0 1019,6 85 0,25 -
02:44 14,0 11,8 13,0 ZW 18,0 1019,6 87 0,25 -
02:49 13,8 11,7 14,0 ZZW 18,0 1019,6 88 0,25 -
02:54 13,7 11,7 11,0 ZZW 15,0 1019,6 88 0,51 -
02:59 13,7 11,9 11,0 ZZW 18,0 1019,6 89 0,51 -
03:04 13,7 11,9 11,0 ZZW 13,0 1019,6 89 0,51 -
03:09 13,7 11,9 11,0 ZW 16,0 1019,6 89 0,51 -
03:14 13,7 12,1 10,0 ZW 11,0 1019,6 90 0,51 -
03:19 13,7 12,1 11,0 ZW 11,0 1019,6 90 0,51 -
03:24 13,7 12,3 13,0 ZW 13,0 1019,6 91 0,51 -
03:29 13,7 12,3 13,0 ZW 16,0 1019,6 91 0,51 -
03:34 13,7 12,4 13,0 ZW 16,0 1019,6 92 0,76 -
03:39 13,7 12,4 16,0 ZW 16,0 1019,6 92 0,76 -
03:44 13,7 12,4 16,0 ZW 16,0 1019,6 92 0,76 -
03:49 13,7 12,6 10,0 ZW 15,0 1019,3 93 0,76 -
03:54 13,6 12,7 11,0 ZZW 16,0 1019,3 94 0,76 -
03:59 13,6 12,7 11,0 ZZW 13,0 1019,3 94 0,51 -
04:04 13,5 12,6 13,0 ZZW 13,0 1019,3 94 0,51 -
04:09 13,5 12,6 11,0 ZZW 13,0 1019,3 95 0,51 -
04:14 13,4 12,6 11,0 ZZW 13,0 1019,3 95 0,51 -
04:19 13,4 12,6 10,0 ZZW 10,0 1019,3 95 0,51 -
04:24 13,3 12,5 11,0 ZW 13,0 1019,0 95 0,51 -
04:29 13,3 12,7 11,0 ZZW 18,0 1019,0 96 0,51 -
04:34 13,3 12,7 13,0 ZZW 15,0 1018,6 96 0,51 -
04:39 13,3 12,7 18,0 ZZW 18,0 1018,6 96 0,51 -
04:44 13,3 12,7 14,0 ZZW 18,0 1018,6 96 0,25 -
04:49 13,3 12,7 11,0 ZZW 11,0 1018,3 96 0,25 -
04:54 13,4 12,6 14,0 ZZW 18,0 1018,3 95 0,25 -
04:59 13,4 12,6 16,0 ZZW 16,0 1018,3 95 0,25 -
05:04 13,5 12,7 16,0 ZZW 16,0 1018,0 95 0,25 -
05:09 13,5 12,7 19,0 ZW 19,0 1018,0 95 - -
05:14 13,5 12,7 16,0 ZZW 18,0 1018,0 95 - -
05:19 13,5 12,7 14,0 ZW 18,0 1018,0 95 - -

Download your copy of this data-set  here

U vindt ons ook hier:

Het Weer Aktueel

WOW Nederland KNMI

Vereniging voor Weerkunde en Klimatologie

UK Met Office Weather Observation Website (WOW)

WeatherCloud

Weather Underground

Awekas

MeteoMap.Cloud

HAMweather, WeatherForYou, PWS Weather

Citizen Weather Observer Program (CWOP)

Apparatuur in gebruik:

Hardwareleverancier
Weerhuisje

Weerstation
Vantage Pro2+ UV

Weercomputer's
alix3d2 & wl330n

Weerprogramma's
Smartbedded

Satelliet NOAA's
WRX137 & KX137

Satelliet Eumetsat
Ayecka SR1 & Triax

Bliksemdetectie
Boltek StormTracker

Webleverancier
F-Service

Weerhuisje

Vantage Pro2+ UV

alix3d2 & wl330n

Smartbedded

WRX137 & KX137

Ayecka SR1 & Triax

Boltek StormTracker

F-Service